Theta_e
306 306 307 307 310 307 299 293 289 300 299 289 284 284 289 295 295 296 294 292 290 287 287 285 286 286 290 297 295 291 291 288 283 285 292 293 290 287 288 281 280 284 282 281
305 306 307 307 309 308 295 290 290 301 299 285 284 288 291 294 293 292 290 289 291 288 285 280 287 289 295 295 293 289 293 287 282 283 285 291 289 291 291 289 287 282 279 281
305 305 306 308 308 309 295 293 289 293 292 289 287 286 287 289 295 292 291 289 289 287 284 287 284 288 293 295 294 300 298 288 286 281 284 288 286 289 291 288 282 283 283 284
305 305 306 307 309 308 297 293 289 289 285 288 288 286 288 288 288 292 291 287 287 284 276 282 284 288 290 292 295 291 293 287 288 289 290 290 289 288 289 287 287 283 284 281
304 305 305 309 309 307 297 292 290 291 288 289 287 288 285 288 289 289 287 285 288 286 281 284 285 287 287 285 289 289 293 286 289 287 290 289 287 288 288 287 286 284 284 282
303 304 307 308 309 304 295 298 296 291 289 287 285 286 288 290 292 292 292 289 288 285 288 291 293 294 293 291 287 290 290 287 284 282 286 285 279 280 283 283 286 285 280 285
303 303 305 307 308 307 299 298 295 288 284 287 288 291 292 291 291 290 293 292 285 291 296 294 292 290 291 290 292 294 289 285 285 282 281 272 283 288 288 286 286 287 286 286
302 303 303 305 306 308 302 300 297 292 286 288 290 292 290 292 292 290 291 291 293 294 290 285 282 283 285 288 291 288 293 287 284 280 277 282 284 287 284 283 281 287 284 285
302 303 303 303 305 307 303 301 300 295 290 287 293 289 291 287 285 286 288 293 293 291 285 283 278 279 282 282 284 291 291 289 285 283 278 274 282 289 292 288 276 287 286 284
302 302 303 303 304 305 304 300 300 296 291 292 291 290 289 291 292 288 286 290 289 287 279 277 276 280 284 279 280 276 276 275 281 281 280 282 289 291 291 275 279 287 286 286
302 302 303 304 304 304 303 301 301 298 292 293 294 295 292 293 290 287 290 289 283 282 278 278 279 279 280 281 282 275 279 283 276 280 275 275 293 289 282 286 288 287 287 286
302 302 303 304 304 304 304 298 301 301 293 292 294 297 298 297 296 293 293 287 283 286 282 284 286 283 285 284 278 287 284 286 284 284 283 291 293 290 293 293 287 288 286 287
302 302 303 304 304 305 305 301 301 297 293 292 288 289 295 297 297 299 287 285 291 286 288 285 287 283 287 282 283 283 290 288 285 284 288 289 292 294 294 293 290 290 290 290
301 302 303 303 305 306 308 300 300 297 293 286 286 295 294 298 296 296 297 292 290 289 289 288 289 285 290 287 286 287 290 287 286 286 290 291 292 293 293 291 291 291 291 292
301 302 303 303 306 307 304 301 300 300 294 287 289 292 292 293 293 294 294 293 289 291 289 289 288 291 290 291 291 288 289 287 285 285 291 290 289 293 292 290 289 291 291 290
301 302 302 304 306 304 298 293 298 300 298 289 283 288 290 293 293 291 291 293 287 288 291 291 292 293 291 288 286 288 292 292 295 292 294 294 294 295 293 290 291 292 291 292
301 301 302 302 305 301 293 290 297 302 299 290 285 286 290 291 292 291 289 290 291 290 291 291 292 292 294 290 286 287 291 295 295 296 295 293 294 291 292 292 292 292 292 293
301 302 302 303 304 297 290 296 301 302 295 294 285 285 284 290 287 287 291 291 292 292 292 294 293 294 294 288 291 291 294 295 295 296 297 296 295 294 292 293 292 291 291 292
301 301 302 298 295 291 294 302 302 298 295 288 288 283 281 289 287 288 293 294 289 292 292 293 294 292 289 292 292 291 295 294 295 296 296 296 295 292 291 291 291 291 291 291
301 296 290 284 292 302 301 297 293 291 292 292 287 290 284 288 289 286 285 294 292 289 292 297 292 291 295 294 293 294 296 295 296 293 293 295 294 291 290 291 292 292 292 291
294 290 289 290 298 290 289 287 287 287 285 288 289 288 286 293 285 286 285 283 290 288 287 291 285 284 289 291 291 292 296 296 296 296 296 295 293 292 291 291 292 293 293 292
289 290 294 293 291 288 283 284 287 287 284 288 287 288 289 290 292 286 287 284 287 284 290 290 283 288 290 291 292 292 296 295 295 296 295 294 293 293 292 292 292 293 294 294
288 289 287 286 283 280 279 278 279 284 288 289 288 286 289 290 292 289 288 284 284 292 289 285 287 289 291 291 292 294 297 296 296 296 296 295 294 294 293 293 294 294 294 294
284 282 275 278 278 280 280 280 283 289 289 288 285 285 286 289 291 292 287 291 291 287 284 286 291 291 291 292 293 294 295 296 295 295 296 294 293 293 294 294 294 294 293 294
283 282 276 279 282 282 283 284 284 287 286 283 282 284 287 287 288 290 291 288 286 288 287 291 293 293 292 291 293 294 296 296 295 296 295 295 295 294 294 295 295 295 295 294
284 283 279 281 281 281 281 282 282 284 284 283 283 280 283 285 288 288 287 287 286 289 294 294 292 291 290 292 294 296 299 299 296 296 296 296 295 294 294 296 296 296 295 294
282 281 283 280 279 280 280 281 280 283 281 279 280 278 279 287 284 287 291 287 288 293 295 292 291 290 291 294 296 298 300 294 295 297 297 296 297 297 296 294 295 295 295 295
Wind_Speed
25 26 27 27 25 24 9 4 4 6 6 8 3 2 4 5 4 4 4 1 4 4 2 4 4 6 6 6 3 4 5 4 7 14 21 11 10 10 10 6 6 6 6 18
25 26 27 26 25 17 4 3 3 6 5 5 4 6 4 2 4 4 4 4 2 3 2 4 5 5 6 8 5 4 5 4 7 8 4 2 4 4 8 12 13 17 14 11
23 24 26 26 23 21 3 3 5 6 6 2 3 5 4 5 5 3 3 4 2 5 4 6 8 10 5 1 7 16 10 6 9 10 15 11 22 22 17 14 8 17 14 26
21 23 24 25 24 21 2 4 1 2 5 3 3 2 3 3 6 5 5 4 2 2 4 7 7 5 6 6 8 1 7 6 9 16 21 21 24 25 22 19 19 14 20 19
21 21 22 22 27 22 5 3 4 4 4 4 3 2 3 1 2 3 6 5 7 4 6 11 21 10 4 8 5 2 1 5 5 14 18 19 22 19 15 12 5 11 16 27
20 20 21 22 24 13 4 3 3 3 3 3 2 3 3 1 6 6 7 5 11 9 11 9 16 17 17 12 6 3 4 3 3 8 5 14 7 3 1 4 8 13 19 24
19 19 19 21 20 11 1 2 1 2 5 1 4 5 9 12 4 8 12 8 4 6 9 14 7 6 8 7 11 11 3 2 3 6 8 4 2 4 2 12 16 17 15 12
18 19 19 18 18 17 2 2 2 1 5 4 12 9 4 9 7 5 8 6 2 6 5 5 8 6 5 1 2 6 11 1 5 4 3 11 1 2 6 11 29 2 9 22
17 18 18 17 16 15 1 2 1 1 3 5 4 3 8 5 4 6 5 5 3 5 3 3 2 3 3 5 9 0 4 7 3 3 4 6 2 2 14 8 8 5 19 20
17 17 18 17 16 15 5 3 3 1 3 5 4 4 2 3 4 4 6 5 5 3 3 2 1 3 1 3 4 4 4 3 6 6 6 8 3 10 8 4 7 19 18 21
17 17 18 18 16 14 6 5 5 3 4 11 13 16 12 7 4 5 5 6 4 3 2 2 3 2 4 3 4 4 3 4 3 3 3 8 7 3 2 6 8 18 19 21
18 19 19 19 18 16 12 4 2 3 3 8 6 16 20 19 21 11 5 4 3 5 3 3 3 4 4 3 5 3 4 6 3 6 7 3 8 10 10 8 14 16 17 20
18 19 20 20 20 19 12 4 3 2 3 8 3 8 7 7 12 15 6 3 7 4 4 4 3 6 2 4 6 4 4 4 4 1 5 7 7 9 10 4 12 16 17 19
18 19 20 21 21 18 8 1 0 0 3 4 8 4 12 8 6 10 16 5 2 4 2 3 3 3 5 4 6 6 5 4 5 6 9 9 6 5 10 9 11 16 17 15
18 19 20 21 20 10 2 1 1 0 2 4 10 18 6 3 6 12 11 9 5 3 2 3 4 2 3 4 4 6 6 7 4 5 3 3 7 6 7 10 12 14 15 16
17 19 19 21 15 8 2 1 2 1 2 3 6 6 6 6 4 5 7 9 3 4 3 3 4 3 3 4 4 8 8 6 8 4 3 5 9 4 6 9 11 11 11 13
17 18 19 19 14 2 2 3 2 3 2 3 7 6 6 5 2 2 3 3 3 4 3 4 3 4 5 4 9 6 6 6 6 4 2 6 3 2 6 9 9 10 9 9
17 18 20 15 9 5 3 2 4 6 2 3 4 6 6 4 4 3 2 3 2 3 3 2 3 2 4 7 13 6 3 3 2 3 6 9 1 1 6 7 7 7 9 10
18 19 16 3 1 2 4 7 4 4 3 3 3 3 6 5 4 3 2 4 3 4 4 4 5 5 8 11 10 6 4 4 5 3 2 3 3 4 4 6 7 8 9 9
18 3 3 2 3 12 12 2 2 2 2 3 3 2 5 3 3 4 4 3 4 3 4 2 4 6 13 7 4 4 5 6 3 2 3 4 3 4 3 5 6 7 8 6
3 3 2 3 10 3 2 3 3 3 3 3 3 2 4 3 4 4 3 4 3 3 4 3 3 5 3 2 6 5 6 5 2 1 2 2 5 4 3 5 7 7 8 9
3 3 4 3 3 2 2 4 3 4 2 2 2 5 5 4 3 2 4 4 2 6 4 2 4 4 0 3 4 5 5 4 3 4 7 7 5 7 5 5 7 7 8 8
2 0 3 1 3 4 5 4 3 3 2 2 3 6 4 3 3 4 3 4 6 2 3 4 5 1 2 3 5 5 4 2 4 8 9 8 7 8 5 6 7 8 10 9
1 2 5 5 5 5 5 3 1 1 3 4 5 4 3 2 3 3 5 5 3 4 2 4 3 1 3 2 4 4 5 6 10 9 9 9 9 7 6 7 8 9 11 10
3 3 6 7 5 3 2 0 3 3 2 4 5 4 2 4 4 4 4 4 3 4 2 3 1 3 4 4 4 4 4 6 6 7 8 8 7 9 8 9 8 7 10 10
4 7 6 4 4 5 2 2 3 1 2 4 2 3 4 5 4 4 6 3 1 5 5 5 1 4 4 4 4 3 1 3 7 7 8 7 6 7 7 9 7 7 11 11
7 6 6 4 3 5 3 4 4 2 3 1 2 3 7 4 5 4 3 3 3 10 7 3 4 2 4 5 4 2 3 6 7 8 8 6 5 5 6 9 7 9 10 10
Wind_Direction
355 355 354 353 352 345 43 3 21 311 354 51 31 60 320 292 314 341 301 185 220 240 298 280 257 238 218 183 177 240 205 253 271 276 269 268 239 253 233 243 244 245 271 279
356 355 354 350 353 8 334 21 281 321 44 73 353 313 311 280 336 321 10 312 263 51 264 336 232 247 263 263 178 223 191 246 298 304 23 6 202 194 229 243 258 261 268 261
357 357 355 351 348 356 77 33 358 335 33 37 87 356 295 309 317 274 344 279 48 10 294 221 272 276 286 289 241 277 271 209 227 258 269 285 288 283 273 256 261 284 263 290
356 357 356 355 347 350 73 29 336 181 317 342 343 238 294 315 341 346 336 315 97 11 293 290 251 256 292 278 281 269 169 255 238 249 261 271 273 276 280 272 271 273 300 296
356 357 356 354 352 347 67 58 22 358 283 318 326 200 228 335 325 248 291 240 290 249 219 228 287 293 300 242 312 250 171 265 264 270 263 264 272 274 276 280 291 279 286 287
358 354 352 355 360 4 33 339 12 84 290 333 4 248 289 331 340 266 225 285 311 295 265 244 262 264 269 239 215 219 249 266 286 275 334 306 278 219 144 290 284 296 290 301
357 355 355 356 359 16 340 349 288 54 280 301 231 291 301 290 251 268 284 293 212 258 318 299 289 267 244 218 235 219 253 228 230 289 339 315 200 97 284 282 281 281 290 320
353 351 355 356 358 4 342 335 333 305 279 246 284 260 235 308 270 253 247 274 252 309 334 341 338 343 9 355 192 197 217 257 299 291 244 279 170 46 313 319 311 79 338 321
346 348 349 352 350 348 319 273 207 215 314 254 282 325 317 285 305 313 264 326 332 26 49 36 33 290 300 309 325 37 166 229 196 295 275 274 150 295 319 309 279 17 334 316
341 342 343 345 345 341 335 272 182 242 254 258 180 213 281 299 286 263 284 330 329 54 49 51 231 286 220 276 284 288 315 324 236 258 261 277 38 344 321 39 289 318 318 309
337 336 337 336 337 336 333 274 193 187 242 278 261 268 260 264 202 267 306 345 355 13 92 165 260 238 260 305 250 220 229 281 247 250 268 288 11 5 353 275 304 300 304 305
330 332 332 331 330 327 327 259 216 175 213 264 254 263 256 243 255 260 226 217 212 226 114 226 271 261 261 243 279 203 254 199 254 210 237 244 350 294 283 300 300 302 302 304
327 328 330 329 327 323 307 251 217 200 264 269 295 252 253 227 227 213 197 244 212 221 182 164 209 251 216 242 233 238 262 151 235 353 251 251 289 297 294 294 304 305 301 302
324 327 330 329 329 323 325 213 155 266 284 288 286 311 274 252 212 190 205 196 78 116 140 195 190 219 185 240 256 249 251 170 238 251 278 291 272 260 312 321 315 306 309 315
323 328 331 333 324 315 353 239 197 197 301 282 293 310 256 300 235 223 206 178 145 161 173 210 221 216 239 237 246 238 178 203 207 254 222 256 277 292 350 322 320 313 317 323
322 327 331 332 336 8 335 299 55 176 167 307 296 291 294 301 267 212 177 179 146 169 190 208 212 202 205 258 259 245 209 201 210 234 189 240 273 326 336 322 319 324 323 322
320 323 321 323 329 317 251 235 193 157 154 257 291 288 290 302 326 67 78 128 183 175 224 228 213 190 202 244 258 257 231 235 213 221 271 276 235 316 338 321 328 330 319 343
315 315 316 299 298 330 305 259 244 193 252 253 274 284 319 0 312 318 148 142 216 206 230 204 198 196 212 252 247 263 235 176 208 250 225 251 34 73 358 327 350 334 356 356
310 313 311 310 63 249 243 284 312 173 237 265 251 302 298 353 304 273 247 186 202 211 229 216 175 208 225 238 248 253 205 163 143 230 342 166 222 97 8 346 357 355 3 8
314 335 4 309 226 306 304 354 180 224 195 236 265 277 269 10 351 296 327 226 227 232 219 183 224 256 258 270 216 239 140 138 182 30 354 310 314 96 8 19 15 11 21 23
12 354 281 272 315 356 266 270 223 160 227 211 247 271 264 250 237 270 234 285 259 271 233 213 255 268 274 40 79 78 105 137 140 38 332 41 62 90 47 32 36 29 39 35
205 269 284 277 279 239 272 243 216 210 241 107 245 242 219 257 212 258 270 260 312 253 139 220 264 257 331 133 99 102 112 122 97 72 88 77 72 72 74 51 53 49 53 50
18 239 261 250 250 244 227 217 218 228 81 266 266 292 228 229 209 247 271 260 240 84 201 237 235 346 140 129 105 113 106 70 119 107 90 90 83 79 78 72 69 62 65 53
35 247 263 224 218 237 204 218 296 78 209 274 279 265 244 256 233 233 260 245 290 241 223 247 308 302 151 109 128 122 89 80 122 116 101 94 92 90 78 75 80 78 80 66
239 224 241 233 248 279 245 216 337 314 325 334 328 292 229 265 255 217 253 247 277 328 337 277 306 122 128 127 119 117 105 110 138 129 113 106 99 91 85 82 87 79 86 81
225 227 240 258 276 276 234 232 253 294 347 333 359 307 304 272 290 226 230 251 331 341 336 329 314 116 97 125 133 122 222 116 141 138 125 123 122 112 99 98 89 95 93 94
224 235 217 237 239 227 216 181 208 170 73 37 308 294 238 290 265 244 22 15 311 309 317 333 319 95 130 142 135 149 268 116 125 126 129 126 110 103 86 89 88 87 93 99